Weather History for Hays, KS

Change the Weather History Date:

Saturday, January 18, 2014

  Actual Average Record
Temperature  
Mean Temperature 36 °F -  
Max Temperature 51 °F 41 °F 64 °F (1997)
Min Temperature 21 °F 17 °F 10 °F (1997)
Degree Days  
Heating Degree Days 29    
Moisture  
Dew Point 18 °F    
Average Humidity 44    
Maximum Humidity 80    
Minimum Humidity 28    
Precipitation  
Precipitation 0.00 in - - ()
Sea Level Pressure  
Sea Level Pressure 30.02 in    
Wind  
Wind Speed 16 mph (NW)    
Max Wind Speed 40 mph    
Max Gust Speed 50 mph    
Visibility 10 miles    
Events      
Averages and records for this station are not official NWS values.
T = Trace of Precipitation, MM = Missing Value Source: NWS Daily Summary

Daily Weather History Graph

Daily Weather History Graph

Search for Another Location

Airport:

Trip Planner

Search our weather history database for the weather conditions in past years. The results will help you decide how hot, cold, wet, or windy it might be!

Date:

Astronomy

Jan. 18, 2014 Rise Set
Actual Time 7:52 AM CST 5:42 PM CST
Civil Twilight 7:23 AM CST 6:11 PM CST
Nautical Twilight 6:51 AM CST 6:44 PM CST
Astronomical Twilight 6:19 AM CST 7:16 PM CST
Moon 8:24 PM CST (1/18) 8:55 AM CST (1/18)
Length of Visible Light 10h 47m
Length of Day
9h 50m
Waning Gibbous, 94% of the Moon is Illuminated
Jan 18
Waning Gibbous
Jan 23
Last Quarter
Jan 30
New
Feb 6
First Quarter
Feb 14
Full

Hourly Weather History & Observations

Time (CST) Temp. Windchill Dew Point Humidity Pressure Visibility Wind Dir Wind Speed Gust Speed Precip Events Conditions
12:15 AM 35.6 °F 29.9 °F 17.6 °F 48% 29.93 in 10.0 mi West 6.9 mph - N/A   Clear
12:35 AM 35.6 °F 27.5 °F 17.6 °F 48% 29.92 in 10.0 mi West 11.5 mph - N/A   Clear
12:55 AM 35.6 °F 26.2 °F 17.6 °F 48% 29.91 in 10.0 mi West 15.0 mph - N/A   Clear
1:15 AM 35.6 °F 26.2 °F 17.6 °F 48% 29.91 in 10.0 mi West 15.0 mph - N/A   Clear
1:35 AM 33.8 °F 25.8 °F 15.8 °F 48% 29.91 in 10.0 mi WNW 10.4 mph - N/A   Clear
1:55 AM 35.6 °F 26.2 °F 15.8 °F 44% 29.91 in 10.0 mi West 15.0 mph - N/A   Clear
2:15 AM 35.6 °F 27.1 °F 17.6 °F 48% 29.91 in 10.0 mi West 12.7 mph - N/A   Clear
2:35 AM 37.4 °F 27.8 °F 17.6 °F 45% 29.91 in 10.0 mi WNW 17.3 mph - N/A   Clear
2:55 AM 39.2 °F 30.8 °F 17.6 °F 42% 29.91 in 10.0 mi WNW 15.0 mph - N/A   Clear
3:15 AM 39.2 °F 31.6 °F 17.6 °F 42% 29.90 in 10.0 mi West 12.7 mph - N/A   Clear
3:35 AM 41.0 °F 34.7 °F 17.6 °F 39% 29.91 in 10.0 mi WSW 10.4 mph - N/A   Clear
3:55 AM 32.0 °F 23.0 °F 14.0 °F 48% 29.91 in 10.0 mi West 11.5 mph - N/A   Clear
4:15 AM 30.2 °F 19.8 °F 15.8 °F 55% 29.90 in 10.0 mi West 13.8 mph - N/A   Clear
4:35 AM 30.2 °F 20.2 °F 15.8 °F 55% 29.90 in 10.0 mi West 12.7 mph - N/A   Clear
4:55 AM 32.0 °F 23.0 °F 15.8 °F 51% 29.89 in 10.0 mi West 11.5 mph - N/A   Clear
5:15 AM 32.0 °F 23.6 °F 17.6 °F 55% 29.89 in 10.0 mi West 10.4 mph - N/A   Clear
5:35 AM 35.6 °F 27.5 °F 19.4 °F 52% 29.89 in 10.0 mi West 11.5 mph - N/A   Clear
5:55 AM 37.4 °F 27.8 °F 19.4 °F 48% 29.89 in 10.0 mi WNW 17.3 mph - N/A   Clear
6:15 AM 42.8 °F 34.8 °F 19.4 °F 39% 29.90 in 10.0 mi WNW 17.3 mph - N/A   Clear
6:35 AM 42.8 °F 34.5 °F 19.4 °F 39% 29.90 in 10.0 mi WNW 18.4 mph 25.3 mph N/A   Clear
6:55 AM 42.8 °F 34.8 °F 19.4 °F 39% 29.91 in 10.0 mi NW 17.3 mph - N/A   Clear
7:15 AM 42.8 °F 34.5 °F 19.4 °F 39% 29.91 in 10.0 mi NW 18.4 mph 23.0 mph N/A   Clear
7:35 AM 42.8 °F 34.3 °F 19.4 °F 39% 29.92 in 10.0 mi NW 19.6 mph - N/A   Clear
7:55 AM 42.8 °F 34.3 °F 19.4 °F 39% 29.93 in 10.0 mi NW 19.6 mph 27.6 mph N/A   Clear
8:15 AM 42.8 °F 34.3 °F 19.4 °F 39% 29.95 in 10.0 mi NW 19.6 mph 25.3 mph N/A   Clear
8:35 AM 42.8 °F 35.1 °F 19.4 °F 39% 29.95 in 10.0 mi WNW 16.1 mph - N/A   Clear
8:55 AM 42.8 °F 34.8 °F 19.4 °F 39% 29.96 in 10.0 mi NW 17.3 mph - N/A   Clear
9:15 AM 42.8 °F 34.8 °F 19.4 °F 39% 29.98 in 10.0 mi NW 17.3 mph 24.2 mph N/A   Clear
9:35 AM 44.6 °F 37.4 °F 21.2 °F 39% 29.99 in 10.0 mi NW 16.1 mph - N/A   Clear
9:55 AM 46.4 °F 38.5 °F 23.0 °F 40% 29.99 in 10.0 mi WNW 21.9 mph 26.5 mph N/A   Clear
10:15 AM 48.2 °F - 23.0 °F 37% 30.00 in 10.0 mi NW 28.8 mph 38.0 mph N/A   Clear
10:35 AM 50.0 °F - 21.2 °F 32% 30.01 in 10.0 mi NW 34.5 mph 44.9 mph N/A   Clear
10:55 AM 51.8 °F - 19.4 °F 28% 30.01 in 10.0 mi NW 32.2 mph 39.1 mph N/A   Clear
11:15 AM 51.8 °F - 19.4 °F 28% 30.01 in 10.0 mi NW 27.6 mph 40.3 mph N/A   Clear
11:35 AM 50.0 °F - 17.6 °F 28% 30.02 in 8.0 mi NNW 40.3 mph 48.3 mph N/A   Clear
11:55 AM 50.0 °F - 19.4 °F 30% 30.02 in 10.0 mi NW 36.8 mph 47.2 mph N/A   Clear
12:15 PM 50.0 °F - 17.6 °F 28% 30.02 in 10.0 mi NW 36.8 mph 49.5 mph N/A   Clear
12:35 PM 50.0 °F - 17.6 °F 28% 30.02 in 7.0 mi NW 36.8 mph 48.3 mph N/A   Clear
12:55 PM 50.0 °F - 17.6 °F 28% 30.03 in 10.0 mi NNW 34.5 mph 46.0 mph N/A   Clear
1:15 PM 50.0 °F - 19.4 °F 30% 30.02 in 10.0 mi NNW 35.7 mph 42.6 mph N/A   Clear
1:35 PM 50.0 °F - 19.4 °F 30% 30.03 in 10.0 mi NNW 27.6 mph 42.6 mph N/A   Clear
1:55 PM 50.0 °F - 19.4 °F 30% 30.03 in 10.0 mi NNW 31.1 mph 41.4 mph N/A   Clear
2:15 PM 50.0 °F - 19.4 °F 30% 30.03 in 10.0 mi NNW 33.4 mph 41.4 mph N/A   Clear
2:35 PM 50.0 °F - 19.4 °F 30% 30.03 in 10.0 mi NNW 25.3 mph 36.8 mph N/A   Clear
2:55 PM 50.0 °F - 19.4 °F 30% 30.05 in 10.0 mi North 28.8 mph 38.0 mph N/A   Clear
3:15 PM 50.0 °F - 19.4 °F 30% 30.06 in 10.0 mi NNW 26.5 mph 34.5 mph N/A   Clear
3:35 PM 50.0 °F - 19.4 °F 30% 30.07 in 10.0 mi North 26.5 mph 34.5 mph N/A   Clear
3:55 PM 48.2 °F - 19.4 °F 32% 30.08 in 10.0 mi North 23.0 mph 34.5 mph N/A   Clear
4:15 PM 48.2 °F - 19.4 °F 32% 30.09 in 10.0 mi North 28.8 mph 33.4 mph N/A   Clear
4:35 PM 48.2 °F - 19.4 °F 32% 30.10 in 10.0 mi North 28.8 mph 35.7 mph N/A   Clear
4:55 PM 46.4 °F 38.3 °F 19.4 °F 34% 30.11 in 10.0 mi North 23.0 mph - N/A   Clear
5:15 PM 46.4 °F 38.7 °F 19.4 °F 34% 30.12 in 10.0 mi North 20.7 mph - N/A   Clear
5:35 PM 44.6 °F 37.8 °F 19.4 °F 37% 30.14 in 10.0 mi North 15.0 mph - N/A   Clear
5:55 PM 41.0 °F 33.5 °F 17.6 °F 39% 30.14 in 10.0 mi North 13.8 mph - N/A   Clear
6:15 PM 39.2 °F 33.0 °F 17.6 °F 42% 30.15 in 10.0 mi North 9.2 mph - N/A   Clear
6:35 PM 37.4 °F 32.8 °F 17.6 °F 45% 30.16 in 10.0 mi North 5.8 mph - N/A   Clear
6:55 PM 37.4 °F 34.9 °F 17.6 °F 45% 30.16 in 10.0 mi North 3.5 mph - N/A   Clear
7:15 PM 35.6 °F 31.7 °F 17.6 °F 48% 30.16 in 10.0 mi NW 4.6 mph - N/A   Clear
7:35 PM 35.6 °F 31.7 °F 19.4 °F 52% 30.16 in 10.0 mi West 4.6 mph - N/A   Clear
7:55 PM 35.6 °F 31.7 °F 19.4 °F 52% 30.17 in 10.0 mi North 4.6 mph - N/A   Clear
8:15 PM 33.8 °F 28.6 °F 17.6 °F 52% 30.17 in 10.0 mi NNW 5.8 mph - N/A   Clear
8:35 PM 28.4 °F 23.3 °F 15.8 °F 59% 30.16 in 10.0 mi NNW 4.6 mph - N/A   Clear
8:55 PM 28.4 °F 24.6 °F 15.8 °F 59% 30.16 in 10.0 mi NW 3.5 mph - N/A   Clear
9:15 PM 26.6 °F 22.6 °F 15.8 °F 64% 30.16 in 10.0 mi WNW 3.5 mph - N/A   Clear
9:35 PM 24.8 °F 19.1 °F 15.8 °F 69% 30.16 in 10.0 mi West 4.6 mph - N/A   Clear
9:55 PM 24.8 °F 17.9 °F 15.8 °F 69% 30.15 in 10.0 mi WNW 5.8 mph - N/A   Clear
10:15 PM 23.0 °F 18.4 °F 10.4 °F 59% 30.14 in 10.0 mi SW 3.5 mph - N/A   Clear
10:35 PM 23.0 °F 15.8 °F 17.6 °F 80% 30.13 in 10.0 mi WSW 5.8 mph - N/A   Clear
10:55 PM 21.2 °F 11.7 °F 14.0 °F 74% 30.13 in 10.0 mi WSW 8.1 mph - N/A   Clear
11:15 PM 21.2 °F 12.6 °F 12.2 °F 68% 30.14 in 10.0 mi WSW 6.9 mph - N/A   Clear
11:35 PM 23.0 °F 13.1 °F 15.8 °F 74% 30.14 in 10.0 mi West 9.2 mph - N/A   Clear
11:55 PM 24.8 °F 16.9 °F 15.8 °F 69% 30.13 in 10.0 mi West 6.9 mph - N/A   Clear